Volver al catálogo

ECHOSTAR 25

ActivoComunicacionesGEO
NORAD 68126·PAYLOAD·🇺🇸 United States

Lanzado Mar 10, 2026 desde Cape Canaveral Space Force Station

Loading…

TLE

ActualizadoSource: Space-Track

Época: Sep 14, 2026, 13:16 UTC

1 68126U 26045A   26257.55339080  .00000000  00000-0  00000-0 0  9995
2 68126   0.0200 150.3311 0001482  20.1140 272.3084  1.00269125  1883

Sigue ECHOSTAR 25 en tiempo real con AllMySat

Download on the App Store